User: anonymous   Login
Location: Drayton Valley
(53.2170°N, 114.9830°W)
Time: 19:34:27
(UTC-06:00)
Language:

MOZ.5/SAFIR/RUBIN 5/SL-8 - Orbit

View from above orbital plane
View from above orbital plane
View from above satellite
View from above satellite

Ground track
Ground track

The orbit data is extracted from the following two-line orbital elements,

1 28898U 05043G   17086.91640771 +.00000041 +00000-0 +17618-4 0  9996
2 28898 097.9134 240.2547 0021180 084.2207 276.1408 14.60169771231342
Epoch (UTC): 27 March 2017 21:59:37
Eccentricity: 0.0021180
inclination: 97.9134°
perigee height: 677 km
apogee height: 707 km
right ascension of ascending node: 240.2547°
argument of perigee: 84.2207°
revolutions per day: 14.60169771
mean anomaly at epoch: 276.1408°
orbit number at epoch: 23134

The dashed part of the orbit path shows where the satellite is in the earth's shadow,  

DLR